Torna al catalogo

GEESAT 4-11

AttivoComunicazioniLEO
NORAD 65129·PAYLOAD·🇨🇳 China

Lanciato Aug 8, 2025 da Yellow Sea Launch Area

Loading…

Prossimi Passaggi (prossime 24 ore)

TLE

AggiornatoSource: Space-Track

Epoca: Sep 14, 2026, 22:15 UTC

1 65129U 25170L   26257.92754081  .00001236  00000-0  17288-3 0  9997
2 65129  49.9835 117.4390 0007260  75.7960 284.3785 14.84261409 59760

Traccia GEESAT 4-11 in tempo reale con AllMySat

Download on the App Store